User: anonymous   Login
Location: Homewood
(41.1836°S, 175.9581°E)
Time: 16:38:33
(UTC+00:00)
Language:

Cosmos 1766 - Orbit

View from above orbital plane
View from above orbital plane
View from above satellite
View from above satellite

Ground track
Ground track

The orbit data is extracted from the following two-line orbital elements,

1 16881U 86055A   24170.07467427  .00008479  00000-0  34958-3 0  9999
2 16881  82.5014  31.0024 0010533 276.2442  83.7595 15.23878530 68132
Epoch (UTC): 18 June 2024 01:47:31
Eccentricity: 0.0010533
inclination: 82.5014°
perigee height: 487 km
apogee height: 501 km
right ascension of ascending node: 31.0024°
argument of perigee: 276.2442°
revolutions per day: 15.23878530
mean anomaly at epoch: 83.7595°
orbit number at epoch: 6813

The dashed part of the orbit path shows where the satellite is in the earth's shadow,  

DLR